Date String (YYYY-MM-DD hh:mm:ss) UTC,Instrument flags,Ambient pressure (hPa),Sample flow (lpm),Bypass flow (lpm),Sample temperature (°C),Ambient temperature (°C),ASC tube jacket temperature (°C),LED temperature (°C),Box temperature (°C),Sample RH (%),Span deviation,Mass concentration (μg/m³),Mass concentration (μg/m³),Mass concentration (μg/m³)
DateTimeUTC,F1_M11,P_M11,Q1_M11,Q2_M11,T1_M11,T2_M11,T3_M11,T4_M11,T5_M11,U1_M11,ZSPAN_M11,X0_M11,X2_M11,X1_M11
2021-10-15 05:00:00,,0828.1,5.00,0.00,24.9,24.0,00.0,34.0,26.7,18.7,0000.6,0009.86,0007.11,0006.78
2021-10-15 05:01:00,,0828.1,5.01,0.00,24.9,23.9,00.0,34.0,26.7,18.7,0000.8,0009.81,0007.09,0006.76
2021-10-15 05:02:00,,0828.1,4.99,0.00,24.9,24.0,00.0,34.0,26.8,18.7,0000.1,0010.46,0007.10,0006.77
2021-10-15 05:03:00,,0828.2,5.01,0.00,24.9,24.0,00.0,34.0,26.7,18.7,0000.7,0010.60,0007.11,0006.80
2021-10-15 05:04:00,,0828.2,4.99,0.00,24.9,24.0,00.0,34.0,26.7,18.7,0001.3,0010.67,0007.15,0006.81
2021-10-15 05:05:00,,0828.1,5.00,0.00,24.9,24.0,00.0,34.0,26.7,18.7,0001.0,0010.71,0007.15,0006.83
2021-10-15 05:06:00,,0828.1,5.00,0.00,24.9,24.0,00.0,34.0,26.7,18.7,0000.3,0011.03,0007.13,0006.81
2021-10-15 05:07:00,,0828.2,5.00,0.00,24.9,24.0,00.0,34.0,26.7,18.7,0000.2,0011.08,0007.10,0006.80
2021-10-15 05:08:00,,0828.2,5.00,0.00,24.9,24.0,00.0,34.0,26.7,18.7,0000.1,0011.13,0007.07,0006.77
2021-10-15 05:09:00,,0828.2,5.00,0.00,24.9,24.0,00.0,34.0,26.7,18.6,0000.0,0011.12,0007.06,0006.74
2021-10-15 05:10:00,,0828.2,4.99,0.00,24.9,24.0,00.0,34.0,26.7,18.6,0000.0,0011.09,0007.01,0006.68
2021-10-15 05:11:00,,0828.2,5.01,0.00,24.9,24.0,00.0,34.0,26.7,18.6,0000.0,0011.01,0006.95,0006.64
2021-10-15 05:12:00,,0828.2,5.00,0.00,24.9,24.0,00.0,34.0,26.7,18.6,0000.0,0010.94,0006.93,0006.60
2021-10-15 05:13:00,,0828.2,5.00,0.00,24.9,24.0,00.0,34.0,26.7,18.6,-000.0,0010.24,0006.87,0006.56
2021-10-15 05:14:00,,0828.2,4.99,0.00,24.9,24.0,00.0,34.0,26.7,18.6,-000.4,0010.01,0006.79,0006.49
2021-10-15 05:15:00,,0828.1,5.02,0.00,24.9,24.0,00.0,34.0,26.7,18.6,-000.5,0009.94,0006.71,0006.42
2021-10-15 05:16:00,,0828.1,5.01,0.00,24.9,24.0,00.0,34.0,26.7,18.6,-000.2,0009.89,0006.65,0006.36
2021-10-15 05:17:00,,0828.2,4.99,0.00,24.9,23.9,00.0,34.0,26.7,18.6,0000.0,0009.46,0006.61,0006.33
2021-10-15 05:18:00,,0828.1,5.00,0.00,24.9,23.9,00.0,34.0,26.7,18.5,0000.0,0009.38,0006.58,0006.32
2021-10-15 05:19:00,,0828.1,5.01,0.00,24.9,23.9,00.0,34.0,26.7,18.6,0000.0,0009.37,0006.58,0006.31
2021-10-15 05:20:00,,0828.1,5.01,0.00,24.8,23.8,00.0,34.0,26.6,18.6,0000.0,0009.37,0006.56,0006.29
2021-10-15 05:21:00,,0828.1,5.00,0.00,24.8,23.8,00.0,34.0,26.6,18.6,0000.0,0009.28,0006.52,0006.27
2021-10-15 05:22:00,,0828.1,5.00,0.00,24.8,23.7,00.0,34.0,26.5,18.7,-000.1,0009.29,0006.49,0006.24
2021-10-15 05:23:00,,0828.1,4.99,0.00,24.7,23.7,00.0,33.9,26.5,18.7,-000.3,0009.30,0006.50,0006.24
2021-10-15 05:24:00,,0828.1,5.00,0.00,24.7,23.6,00.0,33.9,26.4,18.7,0000.1,0009.29,0006.50,0006.25
2021-10-15 05:25:00,,0828.1,5.01,0.00,24.6,23.6,00.0,33.9,26.4,18.8,-000.0,0009.36,0006.54,0006.26
2021-10-15 05:26:00,,0828.1,4.99,0.00,24.6,23.6,00.0,33.9,26.3,18.8,0000.2,0009.47,0006.60,0006.28
2021-10-15 05:27:00,,0828.1,5.02,0.00,24.6,23.6,00.0,33.8,26.3,18.8,0000.8,0009.76,0006.63,0006.29
2021-10-15 05:28:00,,0828.1,4.99,0.00,24.6,23.6,00.0,33.8,26.3,18.8,0002.3,0009.95,0006.61,0006.27
2021-10-15 05:29:00,,0828.1,5.01,0.00,24.6,23.6,00.0,33.8,26.3,18.8,0003.3,0009.86,0006.58,0006.25
2021-10-15 05:30:00,,0828.1,5.01,0.00,24.6,23.6,00.0,33.8,26.4,18.8,0003.5,0009.75,0006.55,0006.23
2021-10-15 05:31:00,,0828.3,5.01,0.00,24.6,23.6,00.0,33.8,26.4,18.8,0003.2,0009.75,0006.54,0006.23
2021-10-15 05:32:00,,0828.2,4.99,0.00,24.6,23.6,00.0,33.8,26.4,18.8,0003.3,0009.83,0006.56,0006.24
2021-10-15 05:33:00,,0828.2,4.99,0.00,24.6,23.6,00.0,33.8,26.4,18.8,0002.0,0009.91,0006.59,0006.25
2021-10-15 05:34:00,,0828.2,5.01,0.00,24.6,23.6,00.0,33.7,26.4,18.8,0000.0,0009.91,0006.58,0006.25
2021-10-15 05:35:00,,0828.2,5.01,0.00,24.6,23.6,00.0,33.7,26.4,18.7,0001.6,0009.95,0006.59,0006.26
2021-10-15 05:36:00,,0828.3,5.00,0.00,24.6,23.7,00.0,33.7,26.4,18.7,0001.0,0009.94,0006.59,0006.28
2021-10-15 05:37:00,,0828.4,5.00,0.00,24.6,23.7,00.0,33.7,26.4,18.8,0001.1,0009.89,0006.59,0006.29
2021-10-15 05:38:00,,0828.3,5.01,0.00,24.6,23.7,00.0,33.7,26.4,18.8,0002.5,0009.56,0006.63,0006.34
2021-10-15 05:39:00,,0828.2,5.00,0.00,24.6,23.7,00.0,33.7,26.4,18.8,0000.9,0009.49,0006.68,0006.40
2021-10-15 05:40:00,,0828.2,4.99,0.00,24.6,23.7,00.0,33.7,26.4,18.7,0000.4,0009.59,0006.75,0006.43
2021-10-15 05:41:00,,0828.3,5.00,0.00,24.6,23.7,00.0,33.7,26.5,18.7,0000.2,0009.63,0006.77,0006.45
2021-10-15 05:42:00,,0828.3,5.01,0.00,24.6,23.7,00.0,33.7,26.4,18.7,0000.0,0009.57,0006.79,0006.48
2021-10-15 05:43:00,,0828.3,4.99,0.00,24.6,23.7,00.0,33.7,26.4,18.7,0000.0,0009.59,0006.81,0006.50
2021-10-15 05:44:00,,0828.2,5.02,0.00,24.6,23.7,00.0,33.7,26.4,18.6,0000.0,0009.55,0006.81,0006.52
2021-10-15 05:45:00,,0828.2,4.99,0.00,24.6,23.7,00.0,33.7,26.4,18.6,0000.0,0009.53,0006.82,0006.53
2021-10-15 05:46:00,,0828.2,5.01,0.00,24.6,23.7,00.0,33.7,26.5,18.6,0000.0,0009.57,0006.82,0006.53
2021-10-15 05:47:00,,0828.2,5.00,0.00,24.6,23.7,00.0,33.7,26.5,18.5,0000.0,0009.51,0006.79,0006.50
2021-10-15 05:48:00,,0828.2,5.01,0.00,24.6,23.7,00.0,33.7,26.5,18.5,0000.0,0009.46,0006.74,0006.48
2021-10-15 05:49:00,,0828.2,5.00,0.00,24.6,23.8,00.0,33.7,26.5,18.6,0000.0,0009.40,0006.67,0006.41
2021-10-15 05:50:00,,0828.2,5.00,0.00,24.6,23.8,00.0,33.7,26.5,18.6,0000.0,0009.31,0006.63,0006.35
2021-10-15 05:51:00,,0828.2,5.00,0.00,24.7,23.8,00.0,33.7,26.5,18.7,0000.0,0009.27,0006.56,0006.28
2021-10-15 05:52:00,,0828.2,5.01,0.00,24.6,23.8,00.0,33.7,26.5,18.6,0000.0,0009.26,0006.54,0006.26
2021-10-15 05:53:00,,0828.2,4.99,0.00,24.6,23.8,00.0,33.7,26.5,18.6,0000.0,0009.24,0006.53,0006.24
2021-10-15 05:54:00,,0828.2,5.01,0.00,24.7,23.8,00.0,33.7,26.5,18.6,0000.0,0009.17,0006.51,0006.22
2021-10-15 05:55:00,,0828.2,4.99,0.00,24.7,23.8,00.0,33.8,26.5,18.6,0000.0,0009.26,0006.52,0006.20
2021-10-15 05:56:00,,0828.2,5.01,0.00,24.7,23.8,00.0,33.7,26.5,18.6,0000.0,0009.26,0006.52,0006.20
2021-10-15 05:57:00,,0828.3,4.99,0.00,24.7,23.8,00.0,33.7,26.5,18.6,0000.0,0009.22,0006.51,0006.20
2021-10-15 05:58:00,,0828.3,4.99,0.00,24.7,23.8,00.0,33.8,26.5,18.6,0000.0,0009.23,0006.52,0006.21
2021-10-15 05:59:00,,0828.2,5.01,0.00,24.7,23.8,00.0,33.8,26.5,18.6,0000.0,0009.31,0006.55,0006.23
